Location: Moscow
(55.7500°N, 37.5830°E)
Time: 06:39:51
(UTC+03:00)

A-11 Canister half - Pass Details

Date: 30 November 2021
Orbit: 1524 x 1684 km, 47.3° (Epoch: 17 January)

Event Time Altitude Azimuth Distance (km) Brightness Sun altitude
Exits shadow 03:47:01 40° 159° (SSE) 2,291 9.8 -38.7°
Maximum altitude 03:47:26 40° 154° (SSE) 2,285 9.8 -38.7°
Drops below altitude 10° 03:56:23 10° 90° (E) 3,870 11.8 -37.5°
Sets 03:59:42 0° 83° (E) 4,836 12.6 -37.0°
